This is the latest recevied weather packets stored in our database for station/object DB0SVX. If no packets are shown the sender has not sent any weather packets the latest 10 day(s).
| Time | Temp. | Humidity | Pressure | Rain* | Wind** | Luminosity | Snow |
|---|---|---|---|---|---|---|---|
| 1777935321 | 11.11° C | 50% | 1010.7 hPa | 0 mm | - | - | - |
| 1777934421 | 11.67° C | 50% | 1010.7 hPa | 0 mm | - | - | - |
| 1777933521 | 12.22° C | 51% | 1010.7 hPa | 0 mm | - | - | - |
| 1777932621 | 12.22° C | 51% | 1010.7 hPa | 0 mm | - | - | - |
| 1777931721 | 12.78° C | 50% | 1010.7 hPa | 0 mm | - | - | - |
| 1777930821 | 12.78° C | 50% | 1010.9 hPa | 0 mm | - | - | - |
| 1777929921 | 13.33° C | 50% | 1010.9 hPa | 0 mm | - | - | - |
| 1777929021 | 13.89° C | 50% | 1010.9 hPa | 0 mm | - | - | - |
| 1777928121 | 13.89° C | 48% | 1011 hPa | 0 mm | - | - | - |
| 1777927221 | 14.44° C | 47% | 1011 hPa | 0 mm | - | - | - |
| 1777926321 | 14.44° C | 47% | 1010.7 hPa | 0 mm | - | - | - |
| 1777925421 | 15° C | 45% | 1010.7 hPa | 0 mm | - | - | - |
| 1777924521 | 15.56° C | 43% | 1010.7 hPa | 0 mm | - | - | - |
| 1777923621 | 16.67° C | 41% | 1010.7 hPa | 0 mm | - | - | - |
| 1777922721 | 17.22° C | 40% | 1010.7 hPa | 0 mm | - | - | - |
| 1777921821 | 17.78° C | 39% | 1010.9 hPa | 0 mm | - | - | - |
| 1777920923 | 17.78° C | 38% | 1010.7 hPa | 0 mm | - | - | - |
| 1777920021 | 18.33° C | 36% | 1010.5 hPa | 0 mm | - | - | - |
| 1777919121 | 18.89° C | 34% | 1010.5 hPa | 0 mm | - | - | - |
| 1777918221 | 19.44° C | 33% | 1010.5 hPa | 0 mm | - | - | - |
| 1777917321 | 20.56° C | 32% | 1010.5 hPa | 0 mm | - | - | - |
| 1777916421 | 22.22° C | 30% | 1010.5 hPa | 0 mm | - | - | - |
| 1777915521 | 24.44° C | 29% | 1010.5 hPa | 0 mm | - | - | - |
| 1777914621 | 26.67° C | 29% | 1010.2 hPa | 0 mm | - | - | - |
| 1777913721 | 25° C | 32% | 1010.2 hPa | 0 mm | - | - | - |
* Rain latest hour (hover to see other rain measurements)
** Current wind speed in m/s (hover to see current wind gust speed)